Home   Weather   Gütersloh   Past weeks

Flag for Germany Past Weather in Gütersloh, North Rhine-Westphalia, Germany — Yesterday and Last 2 Weeks

Now
55 °F

Rain. Fog.


Feels Like: 53 °F
Forecast: 56 / 71 °F
Wind: 9 mph from West

Location: Paderborn / Lippstadt

Current Time: Jul 25, 2017 at 6:57:07 am

Latest Report: Jul 25, 2017 at 6:20 am


Visibility: 1 mi

Pressure: 29.74 "Hg

Humidity: 94%

Dew Point: 54 °F

Location of GüterslohLocation

Past Weather in Gütersloh — Graph

°F

Gütersloh Temperature Yesterday

Maximum temperature yesterday: 61 °F (at 12:20 am)
Minimum temperature yesterday: 55 °F (at 6:20 am)
Average temperature yesterday: 56 °F

High & Low Weather Summary for the Past Weeks

 TemperatureHumidityPressure
High90 °F (Jul 19, 4:20 pm)100% (Jul 10, 9:20 am)30.24 "Hg (Jul 10, 9:20 am)
Low48 °F (Jul 13, 4:50 am)33% (Jul 19, 4:20 pm)29.68 "Hg (Jul 12, 2:50 pm)
Average64 °F72%29.98 "Hg
* Reported Jul 10 5:20 am — Jul 25 5:50 am, Gütersloh. Weather by CustomWeather, © 2017

Note: Actual official high and low records may vary slightly from our data, if they occured in-between our weather recording intervals... More about our weather records

Advertising

Gütersloh Weather History for the Previous 24 Hours

Scroll right to see more
 ConditionsComfort  
Time TempWeatherWind HumidityBarometerVisibility
5:50 am
Tue, Jul 25
55 °FRain. Low clouds.8 mph94%29.77 "Hg2 mi
4:50 am55 °FRain. Low clouds.9 mph94%29.77 "Hg2 mi
4:20 am55 °FRain. Low clouds.7 mph100%29.77 "Hg3 mi
3:20 am55 °FRain. Passing clouds.8 mph100%29.77 "Hg3 mi
2:50 am55 °FRain. Low clouds.9 mph100%29.80 "Hg3 mi
1:50 am55 °FRain. Low clouds.7 mph100%29.80 "Hg3 mi
1:20 am55 °FRain. Mostly cloudy.7 mph100%29.80 "Hg3 mi
12:50 am55 °FRain. Low clouds.6 mph100%29.80 "Hg2 mi
12:20 am55 °FRain. Low clouds.7 mph100%29.80 "Hg3 mi
11:50 pm
Mon, Jul 24
55 °FLight rain. Low clouds.6 mph100%29.80 "Hg4 mi
11:20 pm55 °FLight rain. Mostly cloudy.6 mph100%29.80 "Hg4 mi
10:50 pm55 °FRain. Mostly cloudy.5 mph100%29.80 "Hg4 mi
10:20 pm55 °FRain. Mostly cloudy.5 mph94%29.80 "Hg5 mi
9:50 pm55 °FLight rain. Passing clouds.3 mph100%29.80 "Hg5 mi
8:50 pm55 °FBroken clouds.2 mph94%29.80 "HgN/A
8:20 pm55 °FPartly sunny.2 mph94%29.80 "HgN/A
7:50 pm55 °FPartly sunny.2 mph94%29.80 "HgN/A
7:20 pm57 °FLight rain. Partly sunny.2 mph88%29.80 "HgN/A
6:50 pm55 °FLight rain. Partly sunny.2 mph88%29.80 "HgN/A
6:20 pm55 °FLight rain. Broken clouds.2 mph88%29.80 "HgN/A
5:50 pm55 °FLight rain. Broken clouds.2 mph88%29.80 "HgN/A
5:20 pm55 °FLight rain. Partly sunny.3 mph88%29.80 "HgN/A
4:50 pm55 °FLight rain. Partly sunny.2 mph88%29.80 "HgN/A
4:20 pm55 °FLight rain. Broken clouds.5 mph94%29.80 "Hg5 mi
3:50 pm55 °FLight rain. Broken clouds.1 mph88%29.80 "Hg5 mi
3:20 pm55 °FLight rain. Broken clouds.3 mph88%29.80 "Hg6 mi
2:50 pm55 °FLight rain. Broken clouds.3 mph94%29.80 "Hg6 mi
2:20 pm55 °FLight rain. Broken clouds.5 mph94%29.80 "Hg6 mi
1:50 pm55 °FLight rain. Fog.3 mph94%29.80 "Hg3 mi
1:20 pm55 °FLight rain. Broken clouds.3 mph94%29.80 "Hg4 mi
12:20 pm57 °FLight rain. Broken clouds.5 mph94%29.80 "Hg6 mi
11:50 am57 °FLight rain. Broken clouds.2 mph94%29.80 "Hg4 mi
11:20 am55 °FLight rain. Broken clouds.3 mph94%29.80 "Hg3 mi
10:50 am55 °FLight rain. Partly sunny.1 mph94%29.80 "Hg3 mi
10:20 am55 °FLight rain. Fog.2 mph94%29.80 "Hg3 mi
9:50 am55 °FLight rain. Fog.1 mph94%29.80 "Hg3 mi
9:20 am55 °FLight rain. Partly sunny.1 mph94%29.80 "Hg4 mi
8:50 am55 °FLight rain. Partly sunny.1 mph94%29.80 "Hg4 mi
8:20 am55 °FLight rain. Partly sunny.2 mph94%29.83 "Hg4 mi
7:50 am55 °FLight rain. Partly sunny.2 mph94%29.83 "Hg4 mi
7:20 am55 °FLight rain. Partly sunny.3 mph94%29.83 "Hg5 mi
6:20 am55 °FLight rain. Partly sunny.3 mph88%29.83 "Hg5 mi
Weather by CustomWeather, © 2017

See weather overviewHow to use our weather pages